Regional Weather Roundup
Issued by NWS

Home | Current Version | Previous Version | Graphics & Text | Print | Product List | Glossary On
Versions: 1 2 3 4 5 6 7 8 9 10 11 12 13 14 15 16 17 18 19 20 21 22 23 24 25 26 27
000
ASUS45 KSLC 182210
RWRUT

UTAH REGIONAL WEATHER ROUNDUP
NATIONAL WEATHER SERVICE SALT LAKE CITY UT
300 PM MST WED JAN 18 2017

UTZ001>011-023>025-182300-

NORTHERN UTAH

CITY           SKY/WX    TMP DP  RH WIND       PRES   REMARKS
BRIGHAM CITY     N/A     24  15  66 W3        30.01F
DUGWAY         MOSUNNY   29  24  79 MISG      29.98F FOG
HILL AFB       MOSUNNY   26  17  69 W6        29.96F WCI  19
LOGAN          PTSUNNY   14   9  80 W10       30.00F HAZE    WCI   1
OGDEN          MOSUNNY   26  17  68 NW3       29.97F
SALT LAKE CITY MOSUNNY   30  22  72 CALM      29.98F
TOOELE VALLEY  CLOUDY    27  23  86 N3        29.99F FOG
WENDOVER       CLOUDY    25  18  74 E6        29.98F WCI  18
HEBER CITY     SUNNY     27  12  54 CALM      29.94F
WEST JORDAN    SUNNY     28  26  91 CALM      29.97F

$$

UTZ011>015-024>027-182300-

CENTRAL/NORTHEAST UTAH

CITY           SKY/WX    TMP DP  RH WIND       PRES   REMARKS
PROVO AIRPORT  SUNNY     32  22  66 N3        29.99F
MOAB/CANYONLAN SUNNY     41  27  57 NW7       30.02F
DELTA          SUNNY     39  23  52 CALM      29.94F
PRICE          SUNNY     29  13  51 CALM      30.01F
RICHFIELD      SUNNY     43  23  45 N3        29.98F
ROOSEVELT      CLOUDY    21  10  63 CALM      30.12F
VERNAL         CLOUDY    18  11  74 CALM      30.09F

$$

UTZ013>016-019>022-027-182300-

SOUTHERN UTAH

CITY           SKY/WX    TMP DP  RH WIND       PRES   REMARKS
BRYCE CANYON   SUNNY     33  23  66 SE8       30.01F WCI  26
CEDAR CITY     SUNNY     46  25  43 SW17G26   29.95F
MILFORD        SUNNY     48  25  40 SW23      29.92F
ST GEORGE      CLEAR     48  30  49 SW3       30.04F
HANKSVILLE     SUNNY     43  23  45 MISG      30.05F
KANAB          SUNNY     52  27  37 S12       30.05F
BLANDING       MOSUNNY   43  31  62 SW7       30.08F

$$

REGIONAL REPORTS     COLORADO/ARIZONA

CITY           SKY/WX    TMP DP  RH WIND       PRES   REMARKS
CRAIG, CO      CLOUDY    18  11  74 CALM      30.01F
GRAND JUNCTION SUNNY     43  32  65 NW10      30.01F
RIFLE, CO      SUNNY     42  25  50 W9        29.99F
MONTROSE, CO   SUNNY     44  26  49 N6        30.01F
CORTEZ, CO     CLOUDY    41  30  65 W10       30.02F
COLORADO CITY    N/A     52  28  40 W6        30.05F
PAGE, AZ       SUNNY     48  27  44 NE5       30.01F
GRAND CANYON   SUNNY     46  19  34 SW14G20   30.06F
KINGMAN, AZ    SUNNY     57  21  24 SW18      30.04F
FLAGSTAFF, AZ  MOSUNNY   43  25  49 SW14G21   30.07F

$$

REGIONAL REPORTS    NEVADA/IDAHO/WYOMING

CITY           SKY/WX    TMP DP  RH WIND       PRES   REMARKS
LAS VEGAS, NV  PTSUNNY   54  22  28 NE8       29.99F
ELY, NY        CLOUDY    39  20  46 S14       29.88F WCI  31
ELKO, NV       CLOUDY    26  15  63 E5        29.91S WCI  20
POCATELLO, ID  CLOUDY    22  13  68 N10       29.95F WCI  11
BURLEY, ID     LGT RAIN  33  20  58 NE12      29.84F WCI  24
FORT BRIDGER,    N/A     22  13  67 W3        29.95F
EVANSTON, WY   CLOUDY    26  11  52 S6        29.92F WCI  19
ROCK SPRINGS,  CLOUDY     9   3  77 CALM      29.93F
KEMMERER, WY     N/A     28  10  47 NW3       29.92F

$$




USA.gov is the U.S. government's official web portal to all federal, state and local government web resources and services.